* Astronomy

Members Login
Username 
 
Password 
    Remember Me  
Post Info TOPIC: Asteroid 2012 DK31


L

Posts: 131433
Date:
RE: Asteroid 2012 DK31
Permalink  
 


Orbital elements:
2012 DK31                                           PHA, Earth MOID = 0.0254 AU
Epoch 2016 Jan. 13.0 TT = JDT 2457400.5                 MPC
M 130.71968              (2000.0)            P               Q
n   1.70596645     Peri.  149.18602     +0.70325774     +0.70923617
a   0.6936745      Node   165.30509     -0.68534511     +0.69469401
e   0.5766618      Incl.   11.16467     -0.18902550     +0.11993450
P   0.58           H   21.8           G   0.15           U   5

MPEC 2016 - C66



__________________


L

Posts: 131433
Date:
Permalink  
 

Orbital elements:
2012 DK31                                           PHA, Earth MOID = 0.0256 AU
Epoch 2012 Mar. 14.0 TT = JDT 2456000.5                 MPC
M 262.28833              (2000.0)            P               Q
n   1.70745271     Peri.  149.18124     +0.70321068     +0.70927132
a   0.6932719      Node   165.30471     -0.68548120     +0.69475657
e   0.5777138      Incl.   11.20259     -0.18870683     +0.11936291
P   0.58           H   21.8           G   0.15           U   9

MPEC 2012 - D72



__________________
Page 1 of 1  sorted by
 
Quick Reply

Please log in to post quick replies.



Create your own FREE Forum
Report Abuse
Powered by ActiveBoard